Location: Newark
(30.0333°N, 31.2167°E)
Time: 19:44:19
(UTC+00:00)

Tiros 1 - Pass Details

Date: 30 January 2020
Orbit: 630 x 664 km, 48.4° (Epoch: 16 February)

Event Time Altitude Azimuth Distance (km) Brightness Sun altitude
Rises 16:38:04 0° 294° (WNW) 2,976 11.5 -15.0°
Reaches altitude 10° 16:40:54 10° 278° (W) 2,066 10.9 -15.6°
Maximum altitude 16:44:23 20° 231° (SW) 1,495 9.8 -16.3°
Drops below altitude 10° 16:47:54 10° 184° (S) 2,067 9.9 -17.1°
Sets 16:50:45 0° 167° (SSE) 2,977 10.5 -17.7°
